Retour au catalogue

COSMOS 2616

ActifMilitaireSSO
NORAD 68827·PAYLOAD·🇷🇺 Russia

Lancé Apr 23, 2026 depuis Plesetsk Cosmodrome

Loading…

Prochains Passages (prochaines 24 heures)

TLE

FraisSource: Space-Track

Époque: Sep 14, 2026, 19:41 UTC

1 68827U 26090B   26257.82036781  .00042340  24374-5  17051-3 0  9990
2 68827  96.6379 172.9110 0015346  63.3464 296.9378 15.86427750 22866

Suivez COSMOS 2616 en temps réel avec AllMySat

Download on the App Store